COSMOS 2251 DEB

Satellite information

Favourite Embed

Satellite Type and Status

DEBRISIN ORBIT

Key statistics

Satellite COSMOS 2251 DEB at a glance.

Uptime

11708

Days in orbit

Revolutions

≈ 14.2

Per day

Orbit

LEO

Low Earth Orbit

Inclination

74.1

Latest

Satellite identification and parameters

Extended collection of information and parameters for COSMOS 2251 DEB.

Object identification

Identified? True

Debris? True

Object name: COSMOS 2251 DEB

International designator: 1993-036AAE

Object number (NORAD): 34760

Object ID (CCSDS): 34760

Country: COMMONWEALTH OF INDEPENDENT STATES (CIS)

Current information (Y/N): Y

RCS size: SMALL

Orbital parameters

Period: 101.471 minutes

Inclination: 74.0613 deg

SMA: 7206.438 km

Apoapsis: 899.665 km

Periapsis: 756.94 km

RAAN: 229.2626 deg

Eccentricy: 0.0099026

Argument of periapsis: 321.6253 deg

Mean anomaly: 216.8857 deg

Mean motion: 14.191288 rev/day

Mean motion (dot): 0.00000738 rev/day2

B* drag term: 0.00034772 1/REarth

Two-line elements (TLE)

Creation date: July 5, 2025, 6:56 a.m.

Reference frame: TEME

Reference center: EARTH

Epoch: July 4, 2025, 9:38 p.m. UTC

TLE line 0: 0 COSMOS 2251 DEB

TLE line 1: 1 34760U 93036AAE 25185.90171863 .00000738 00000-0 34772-3 0 9991

TLE line 2: 2 34760 74.0613 229.2626 0099026 321.6253 216.8857 14.19128800844388

Live tracking on map

Real-time ground track for satellite COSMOS 2251 DEB.

In-orbit conjunctions

A list of the most updated potential collisions computed for object COSMOS 2251 DEB.

Target Orbit TCA Probability of collision Miss distance Type
FENGYUN 1C DEB SSO 2025-06-07 06:00:18 0.0001539433 269.0 (m) DEBRIS
PORCUPINE 1 LEO 2025-04-28 07:35:40 0.0001821309 177.0 (m) PAYLOAD
COSMOS 1275 DEB LEO 2025-03-21 10:57:53 0.0002202146 183.0 (m) DEBRIS

Associated space launch

Military communications satellite. Destroyed in a collision with Iridium 33.

COSMOS 2251 DEB was lifted into orbit during the mission ‘Kosmos-3M | Strela-2M 51’, on board a Kosmos-3M space rocket.

The launch took place on June 16, 1993, 4:17 a.m. from 132/1 (132L).

For more information about the launch, click the button.

Launch to space Kosmos-3M | Strela-2M 51
Kosmos-3M | Strela-2M 51

Agency: N/A

Status: Launch Successful

Launch date: June 16, 1993, 4:17 a.m. UTC

Rocket: Kosmos-3M

Launch pad: 132/1 (132L)

Location: Plesetsk Cosmodrome, Russian Federation

...

Latest news about this satellite

There are no fresh news available about this satellite. Check back as we update our databases every day.


Newsletter sign-up

Weekly statistics, charts and insights to help you stay on top of the space industry.